Location: Plainartige
(45.6866°N, 1.7993°E)
Time: 09:32:14
(UTC+00:00)

POLYITAN 1 - Pass Details

Date: 01 July 2022
Orbit: 586 x 605 km, 98.0° (Epoch: 14 August)

Event Time Altitude Azimuth Distance (km) Brightness Sun altitude
Rises 01:18:21 0° 19° (NNE) 2,859 ? -18.7°
Reaches altitude 10° 01:20:36 10° 25° (NNE) 1,954 ? -18.6°
Maximum altitude 01:24:41 45° 99° (E) 826 ? -18.3°
Enters shadow 01:26:30 28° 155° (SSE) 1,146 ? -18.2°
